"Sample Date","Sample Time","Sensor Name","Sample Value","Units","Flow Rate","Sample Interval","Sample Volume","Laser Status","Number Channels","Micron Size 0","Counts/Channel 0","Micron Size 1","Counts/Channel 1","Micron Size 2","Counts/Channel 2","Micron Size 3","Counts/Channel 3","Micron Size 4","Counts/Channel 4","Micron Size 5","Counts/Channel 5","Micron Size 6","Counts/Channel 6","Micron Size 7","Counts/Channel 7","Micron Size 8","Counts/Channel 8","Micron Size 9","Counts/Channel 9","Micron Size 10","Counts/Channel 10","Micron Size 11","Counts/Channel 11","Micron Size 12","Counts/Channel 12","Micron Size 13","Counts/Channel 13","Micron Size 14","Counts/Channel 14","Micron Size 15","Counts/Channel 15","Micron Size 16","Counts/Channel 16","Micron Size 17","Counts/Channel 17","Micron Size 18","Counts/Channel 18","Micron Size 19","Counts/Channel 19","Micron Size 20","Counts/Channel 20","Micron Size 21","Counts/Channel 21","Micron Size 22","Counts/Channel 22","Micron Size 23","Counts/Channel 23","Micron Size 24","Counts/Channel 24","Micron Size 25","Counts/Channel 25","Micron Size 26","Counts/Channel 26","Micron Size 27","Counts/Channel 27","Micron Size 28","Counts/Channel 28","Micron Size 29","Counts/Channel 29","Micron Size 30","Counts/Channel 30","Micron Size 31","Counts/Channel 31"
"07/02/06","22:00:02","AMMA06",78475.000,"cc",28297.197,6.00,2829.720,1,6,0.100,46443.000,0.200,24314.000,0.300,4775.000,0.500,1832.000,1.000,1111.000,5.000,0
"07/02/06","22:00:08","AMMA06",78413.000,"cc",28366.580,6.00,2836.658,1,6,0.100,46799.000,0.200,24125.000,0.300,4582.000,0.500,1802.000,1.000,1104.000,5.000,1.000
"07/02/06","22:00:14","AMMA06",78824.000,"cc",28281.533,6.00,2828.154,1,6,0.100,46666.000,0.200,24409.000,0.300,4825.000,0.500,1788.000,1.000,1135.000,5.000,1.000
"07/02/06","22:00:20","AMMA06",79048.000,"cc",28279.453,6.00,2827.946,1,6,0.100,46767.000,0.200,24529.000,0.300,4806.000,0.500,1753.000,1.000,1193.000,5.000,0
"07/02/06","22:00:26","AMMA06",78817.000,"cc",28340.947,6.00,2834.095,1,6,0.100,46616.000,0.200,24487.000,0.300,4677.000,0.500,1842.000,1.000,1195.000,5.000,0
"07/02/06","22:00:32","AMMA06",79091.000,"cc",28347.137,6.00,2834.714,1,6,0.100,47030.000,0.200,24413.000,0.300,4701.000,0.500,1794.000,1.000,1151.000,5.000,2.000
"07/02/06","22:00:38","AMMA06",78610.000,"cc",28303.764,6.00,2830.377,1,6,0.100,46624.000,0.200,24229.000,0.300,4747.000,0.500,1857.000,1.000,1152.000,5.000,1.000
"07/02/06","22:00:44","AMMA06",79182.000,"cc",28248.766,6.00,2824.877,1,6,0.100,46976.000,0.200,24522.000,0.300,4708.000,0.500,1877.000,1.000,1097.000,5.000,2.000
"07/02/06","22:00:50","AMMA06",78749.000,"cc",28324.742,6.00,2832.474,1,6,0.100,46782.000,0.200,24416.000,0.300,4734.000,0.500,1717.000,1.000,1099.000,5.000,1.000
"07/02/06","22:00:56","AMMA06",79036.000,"cc",28321.777,6.00,2832.178,1,6,0.100,46688.000,0.200,24590.000,0.300,4806.000,0.500,1799.000,1.000,1152.000,5.000,1.000
"07/02/06","22:01:02","AMMA06",79220.000,"cc",28342.201,6.00,2834.220,1,6,0.100,46839.000,0.200,24472.000,0.300,4878.000,0.500,1870.000,1.000,1161.000,5.000,0
"07/02/06","22:01:08","AMMA06",79485.000,"cc",28343.711,6.00,2834.371,1,6,0.100,47033.000,0.200,24536.000,0.300,4786.000,0.500,1913.000,1.000,1216.000,5.000,1.000
"07/02/06","22:01:14","AMMA06",79623.000,"cc",28276.231,6.00,2827.623,1,6,0.100,47188.000,0.200,24679.000,0.300,4755.000,0.500,1858.000,1.000,1142.000,5.000,1.000
"07/02/06","22:01:20","AMMA06",79334.000,"cc",28315.615,6.00,2831.562,1,6,0.100,46804.000,0.200,24693.000,0.300,4920.000,0.500,1780.000,1.000,1136.000,5.000,1.000
"07/02/06","22:01:26","AMMA06",78871.000,"cc",28373.106,6.00,2837.311,1,6,0.100,46298.000,0.200,24837.000,0.300,4729.000,0.500,1858.000,1.000,1147.000,5.000,2.000
"07/02/06","22:01:32","AMMA06",78688.000,"cc",28344.498,6.00,2834.450,1,6,0.100,46313.000,0.200,24567.000,0.300,4834.000,0.500,1846.000,1.000,1128.000,5.000,0
"07/02/06","22:01:38","AMMA06",78886.000,"cc",28303.203,6.00,2830.321,1,6,0.100,46354.000,0.200,24753.000,0.300,4900.000,0.500,1751.000,1.000,1128.000,5.000,0
"07/02/06","22:01:44","AMMA06",79560.000,"cc",28275.416,6.00,2827.542,1,6,0.100,46636.000,0.200,25043.000,0.300,4851.000,0.500,1874.000,1.000,1156.000,5.000,0
"07/02/06","22:01:50","AMMA06",79018.000,"cc",28313.223,6.00,2831.323,1,6,0.100,46362.000,0.200,24734.000,0.300,4928.000,0.500,1829.000,1.000,1163.000,5.000,2.000
"07/02/06","22:01:56","AMMA06",79124.000,"cc",28303.871,6.00,2830.387,1,6,0.100,46291.000,0.200,24878.000,0.300,5012.000,0.500,1751.000,1.000,1192.000,5.000,0
"07/02/06","22:02:02","AMMA06",79118.000,"cc",28305.150,6.00,2830.515,1,6,0.100,46500.000,0.200,24721.000,0.300,5013.000,0.500,1747.000,1.000,1136.000,5.000,1.000
"07/02/06","22:02:08","AMMA06",79793.000,"cc",28400.553,6.00,2840.055,1,6,0.100,46894.000,0.200,25042.000,0.300,4918.000,0.500,1795.000,1.000,1142.000,5.000,2.000
"07/02/06","22:02:14","AMMA06",78827.000,"cc",28297.328,6.00,2829.733,1,6,0.100,46333.000,0.200,24643.000,0.300,4933.000,0.500,1753.000,1.000,1163.000,5.000,2.000
"07/02/06","22:02:20","AMMA06",79626.000,"cc",28292.725,6.00,2829.273,1,6,0.100,47002.000,0.200,24910.000,0.300,4890.000,0.500,1711.000,1.000,1113.000,5.000,0
"07/02/06","22:02:26","AMMA06",79368.000,"cc",28272.592,6.00,2827.259,1,6,0.100,46722.000,0.200,24764.000,0.300,4928.000,0.500,1791.000,1.000,1163.000,5.000,0
"07/02/06","22:02:32","AMMA06",79594.000,"cc",28389.861,6.00,2838.986,1,6,0.100,46998.000,0.200,24732.000,0.300,4937.000,0.500,1821.000,1.000,1105.000,5.000,1.000
"07/02/06","22:02:38","AMMA06",78986.000,"cc",28338.565,6.00,2833.857,1,6,0.100,46295.000,0.200,24973.000,0.300,4933.000,0.500,1704.000,1.000,1081.000,5.000,0
"07/02/06","22:02:44","AMMA06",79486.000,"cc",28316.016,6.00,2831.602,1,6,0.100,46490.000,0.200,25075.000,0.300,4961.000,0.500,1779.000,1.000,1180.000,5.000,1.000
"07/02/06","22:02:50","AMMA06",78855.000,"cc",28317.440,6.00,2831.744,1,6,0.100,46198.000,0.200,24835.000,0.300,4877.000,0.500,1781.000,1.000,1164.000,5.000,0
"07/02/06","22:02:56","AMMA06",79372.000,"cc",28283.018,6.00,2828.302,1,6,0.100,46707.000,0.200,24738.000,0.300,5001.000,0.500,1822.000,1.000,1103.000,5.000,1.000
"07/02/06","22:03:02","AMMA06",78919.000,"cc",28304.688,6.00,2830.469,1,6,0.100,46641.000,0.200,24360.000,0.300,5020.000,0.500,1804.000,1.000,1092.000,5.000,2.000
"07/02/06","22:03:08","AMMA06",78819.000,"cc",28312.703,6.00,2831.271,1,6,0.100,46571.000,0.200,24555.000,0.300,4785.000,0.500,1802.000,1.000,1105.000,5.000,1.000
"07/02/06","22:03:14","AMMA06",79010.000,"cc",28334.520,6.00,2833.452,1,6,0.100,46726.000,0.200,24411.000,0.300,4983.000,0.500,1760.000,1.000,1130.000,5.000,0
"07/02/06","22:03:20","AMMA06",79232.000,"cc",28341.354,6.00,2834.136,1,6,0.100,46944.000,0.200,24685.000,0.300,4675.000,0.500,1803.000,1.000,1124.000,5.000,1.000
"07/02/06","22:03:26","AMMA06",78874.000,"cc",28279.232,6.00,2827.923,1,6,0.100,46705.000,0.200,24428.000,0.300,4841.000,0.500,1782.000,1.000,1117.000,5.000,1.000
"07/02/06","22:03:32","AMMA06",79102.000,"cc",28326.688,6.00,2832.669,1,6,0.100,46887.000,0.200,24606.000,0.300,4711.000,0.500,1729.000,1.000,1168.000,5.000,1.000
"07/02/06","22:03:38","AMMA06",79210.000,"cc",28361.957,6.00,2836.196,1,6,0.100,47056.000,0.200,24599.000,0.300,4725.000,0.500,1734.000,1.000,1095.000,5.000,1.000
"07/02/06","22:03:44","AMMA06",79410.000,"cc",28290.699,6.00,2829.070,1,6,0.100,46913.000,0.200,24848.000,0.300,4696.000,0.500,1817.000,1.000,1135.000,5.000,1.000
"07/02/06","22:03:50","AMMA06",78921.000,"cc",28325.912,6.00,2832.591,1,6,0.100,46975.000,0.200,24356.000,0.300,4709.000,0.500,1836.000,1.000,1045.000,5.000,0
"07/02/06","22:03:56","AMMA06",79377.000,"cc",28301.844,6.00,2830.185,1,6,0.100,47113.000,0.200,24645.000,0.300,4776.000,0.500,1786.000,1.000,1057.000,5.000,0
"07/02/06","22:04:02","AMMA06",78485.000,"cc",28366.357,6.00,2836.636,1,6,0.100,46505.000,0.200,24361.000,0.300,4686.000,0.500,1799.000,1.000,1134.000,5.000,0
"07/02/06","22:04:08","AMMA06",78551.000,"cc",28324.463,6.00,2832.447,1,6,0.100,46813.000,0.200,24039.000,0.300,4840.000,0.500,1744.000,1.000,1113.000,5.000,2.000
"07/02/06","22:04:14","AMMA06",79293.000,"cc",28250.943,6.00,2825.095,1,6,0.100,47337.000,0.200,24254.000,0.300,4706.000,0.500,1813.000,1.000,1182.000,5.000,1.000
"07/02/06","22:04:20","AMMA06",79207.000,"cc",28285.113,6.00,2828.512,1,6,0.100,47187.000,0.200,24339.000,0.300,4798.000,0.500,1742.000,1.000,1141.000,5.000,0
"07/02/06","22:04:26","AMMA06",79085.000,"cc",28323.260,6.00,2832.326,1,6,0.100,47082.000,0.200,24394.000,0.300,4664.000,0.500,1838.000,1.000,1106.000,5.000,1.000
"07/02/06","22:04:32","AMMA06",78956.000,"cc",28332.465,6.00,2833.247,1,6,0.100,47166.000,0.200,24235.000,0.300,4693.000,0.500,1743.000,1.000,1118.000,5.000,1.000
"07/02/06","22:04:38","AMMA06",78666.000,"cc",28340.986,6.00,2834.099,1,6,0.100,46807.000,0.200,24215.000,0.300,4666.000,0.500,1851.000,1.000,1127.000,5.000,0
"07/02/06","22:04:44","AMMA06",78739.000,"cc",28352.223,6.00,2835.222,1,6,0.100,46870.000,0.200,24237.000,0.300,4627.000,0.500,1836.000,1.000,1169.000,5.000,0
"07/02/06","22:04:50","AMMA06",78774.000,"cc",28283.482,6.00,2828.348,1,6,0.100,47045.000,0.200,24206.000,0.300,4676.000,0.500,1757.000,1.000,1090.000,5.000,0
"07/02/06","22:04:56","AMMA06",78643.000,"cc",28356.469,6.00,2835.647,1,6,0.100,46949.000,0.200,24009.000,0.300,4710.000,0.500,1815.000,1.000,1159.000,5.000,1.000
"07/02/06","22:05:02","AMMA06",78891.000,"cc",28303.438,6.00,2830.344,1,6,0.100,47279.000,0.200,24095.000,0.300,4598.000,0.500,1804.000,1.000,1113.000,5.000,2.000
"07/02/06","22:05:08","AMMA06",78453.000,"cc",28232.426,6.00,2823.243,1,6,0.100,46921.000,0.200,24061.000,0.300,4568.000,0.500,1855.000,1.000,1048.000,5.000,0
"07/02/06","22:05:14","AMMA06",78824.000,"cc",28304.063,6.00,2830.407,1,6,0.100,47008.000,0.200,24112.000,0.300,4697.000,0.500,1840.000,1.000,1166.000,5.000,1.000
"07/02/06","22:05:20","AMMA06",79021.000,"cc",28363.012,6.00,2836.301,1,6,0.100,47325.000,0.200,23969.000,0.300,4728.000,0.500,1823.000,1.000,1176.000,5.000,0
"07/02/06","22:05:26","AMMA06",78074.000,"cc",28337.690,6.00,2833.769,1,6,0.100,46481.000,0.200,23962.000,0.300,4617.000,0.500,1820.000,1.000,1192.000,5.000,2.000
"07/02/06","22:05:32","AMMA06",78171.000,"cc",28312.125,6.00,2831.213,1,6,0.100,46743.000,0.200,23761.000,0.300,4608.000,0.500,1893.000,1.000,1165.000,5.000,1.000
"07/02/06","22:05:38","AMMA06",78052.000,"cc",28299.176,6.00,2829.918,1,6,0.100,46930.000,0.200,23754.000,0.300,4519.000,0.500,1731.000,1.000,1116.000,5.000,2.000
"07/02/06","22:05:44","AMMA06",78906.000,"cc",28298.912,6.00,2829.891,1,6,0.100,47431.000,0.200,23892.000,0.300,4687.000,0.500,1746.000,1.000,1150.000,5.000,0
"07/02/06","22:05:50","AMMA06",78458.000,"cc",28321.168,6.00,2832.117,1,6,0.100,47054.000,0.200,23733.000,0.300,4685.000,0.500,1838.000,1.000,1147.000,5.000,1.000
"07/02/06","22:05:56","AMMA06",78818.000,"cc",28317.596,6.00,2831.760,1,6,0.100,47104.000,0.200,24048.000,0.300,4601.000,0.500,1877.000,1.000,1188.000,5.000,0
"07/02/06","22:06:02","AMMA06",78622.000,"cc",28311.725,6.00,2831.173,1,6,0.100,47470.000,0.200,23610.000,0.300,4567.000,0.500,1859.000,1.000,1116.000,5.000,0
"07/02/06","22:06:08","AMMA06",78608.000,"cc",28318.984,6.00,2831.899,1,6,0.100,47097.000,0.200,23925.000,0.300,4580.000,0.500,1847.000,1.000,1158.000,5.000,1.000
"07/02/06","22:06:14","AMMA06",78734.000,"cc",28295.219,6.00,2829.522,1,6,0.100,47050.000,0.200,24044.000,0.300,4683.000,0.500,1815.000,1.000,1140.000,5.000,2.000
"07/02/06","22:06:20","AMMA06",77853.000,"cc",28318.158,6.00,2831.816,1,6,0.100,46891.000,0.200,23453.000,0.300,4524.000,0.500,1854.000,1.000,1131.000,5.000,0
"07/02/06","22:06:26","AMMA06",78603.000,"cc",28309.037,6.00,2830.904,1,6,0.100,46976.000,0.200,24032.000,0.300,4546.000,0.500,1856.000,1.000,1192.000,5.000,1.000
"07/02/06","22:06:32","AMMA06",78786.000,"cc",28331.377,6.00,2833.138,1,6,0.100,47217.000,0.200,24112.000,0.300,4545.000,0.500,1781.000,1.000,1131.000,5.000,0
"07/02/06","22:06:38","AMMA06",78044.000,"cc",28349.098,6.00,2834.910,1,6,0.100,46651.000,0.200,23919.000,0.300,4463.000,0.500,1829.000,1.000,1182.000,5.000,0
"07/02/06","22:06:44","AMMA06",78316.000,"cc",28296.736,6.00,2829.674,1,6,0.100,47094.000,0.200,23684.000,0.300,4602.000,0.500,1788.000,1.000,1148.000,5.000,0
"07/02/06","22:06:50","AMMA06",78633.000,"cc",28376.484,6.00,2837.649,1,6,0.100,47063.000,0.200,24027.000,0.300,4598.000,0.500,1796.000,1.000,1149.000,5.000,0
"07/02/06","22:06:56","AMMA06",78127.000,"cc",28334.803,6.00,2833.481,1,6,0.100,46771.000,0.200,23738.000,0.300,4651.000,0.500,1857.000,1.000,1110.000,5.000,0
"07/02/06","22:07:02","AMMA06",78152.000,"cc",28245.650,6.00,2824.565,1,6,0.100,46897.000,0.200,23655.000,0.300,4632.000,0.500,1811.000,1.000,1157.000,5.000,0
"07/02/06","22:07:08","AMMA06",78381.000,"cc",28318.969,6.00,2831.897,1,6,0.100,47031.000,0.200,23711.000,0.300,4600.000,0.500,1901.000,1.000,1136.000,5.000,2.000
"07/02/06","22:07:14","AMMA06",78470.000,"cc",28324.881,6.00,2832.488,1,6,0.100,46967.000,0.200,23919.000,0.300,4597.000,0.500,1910.000,1.000,1076.000,5.000,1.000
"07/02/06","22:07:20","AMMA06",78662.000,"cc",28277.807,6.00,2827.781,1,6,0.100,47096.000,0.200,24084.000,0.300,4599.000,0.500,1765.000,1.000,1117.000,5.000,1.000
"07/02/06","22:07:26","AMMA06",78400.000,"cc",28322.438,6.00,2832.244,1,6,0.100,46814.000,0.200,24151.000,0.300,4568.000,0.500,1751.000,1.000,1116.000,5.000,0
"07/02/06","22:07:32","AMMA06",78293.000,"cc",28303.053,6.00,2830.305,1,6,0.100,46681.000,0.200,24027.000,0.300,4671.000,0.500,1795.000,1.000,1116.000,5.000,3.000
"07/02/06","22:07:38","AMMA06",78023.000,"cc",28312.738,6.00,2831.274,1,6,0.100,46635.000,0.200,23930.000,0.300,4611.000,0.500,1763.000,1.000,1084.000,5.000,0
"07/02/06","22:07:44","AMMA06",78385.000,"cc",28380.912,6.00,2838.091,1,6,0.100,46944.000,0.200,23822.000,0.300,4616.000,0.500,1843.000,1.000,1160.000,5.000,0
"07/02/06","22:07:50","AMMA06",78448.000,"cc",28317.740,6.00,2831.774,1,6,0.100,47054.000,0.200,23984.000,0.300,4478.000,0.500,1808.000,1.000,1122.000,5.000,2.000
"07/02/06","22:07:56","AMMA06",78621.000,"cc",28286.654,6.00,2828.666,1,6,0.100,46985.000,0.200,24017.000,0.300,4684.000,0.500,1800.000,1.000,1134.000,5.000,1.000
"07/02/06","22:08:02","AMMA06",78803.000,"cc",28367.809,6.00,2836.781,1,6,0.100,46862.000,0.200,24276.000,0.300,4681.000,0.500,1849.000,1.000,1134.000,5.000,1.000
"07/02/06","22:08:08","AMMA06",78264.000,"cc",28292.615,6.00,2829.262,1,6,0.100,46581.000,0.200,23904.000,0.300,4800.000,0.500,1815.000,1.000,1163.000,5.000,1.000
"07/02/06","22:08:14","AMMA06",78495.000,"cc",28267.107,6.00,2826.711,1,6,0.100,46902.000,0.200,23995.000,0.300,4701.000,0.500,1778.000,1.000,1119.000,5.000,0
"07/02/06","22:08:20","AMMA06",78672.000,"cc",28384.051,6.00,2838.405,1,6,0.100,46747.000,0.200,24329.000,0.300,4709.000,0.500,1816.000,1.000,1068.000,5.000,3.000
"07/02/06","22:08:26","AMMA06",77737.000,"cc",28315.772,6.00,2831.577,1,6,0.100,46005.000,0.200,24083.000,0.300,4611.000,0.500,1847.000,1.000,1191.000,5.000,0
"07/02/06","22:08:32","AMMA06",79058.000,"cc",28289.656,6.00,2828.966,1,6,0.100,46880.000,0.200,24452.000,0.300,4745.000,0.500,1793.000,1.000,1187.000,5.000,1.000
"07/02/06","22:08:38","AMMA06",78414.000,"cc",28298.025,6.00,2829.803,1,6,0.100,46489.000,0.200,24218.000,0.300,4779.000,0.500,1813.000,1.000,1115.000,5.000,0
"07/02/06","22:08:44","AMMA06",78665.000,"cc",28358.492,6.00,2835.849,1,6,0.100,46678.000,0.200,24375.000,0.300,4703.000,0.500,1804.000,1.000,1105.000,5.000,0
"07/02/06","22:08:50","AMMA06",78719.000,"cc",28315.410,6.00,2831.541,1,6,0.100,46827.000,0.200,24247.000,0.300,4627.000,0.500,1817.000,1.000,1200.000,5.000,1.000
"07/02/06","22:08:56","AMMA06",78556.000,"cc",28294.664,6.00,2829.467,1,6,0.100,46363.000,0.200,24389.000,0.300,4813.000,0.500,1842.000,1.000,1149.000,5.000,0
"07/02/06","22:09:02","AMMA06",78807.000,"cc",28325.418,6.00,2832.542,1,6,0.100,46715.000,0.200,24448.000,0.300,4744.000,0.500,1775.000,1.000,1124.000,5.000,1.000
"07/02/06","22:09:08","AMMA06",79068.000,"cc",28355.232,6.00,2835.523,1,6,0.100,46734.000,0.200,24646.000,0.300,4759.000,0.500,1768.000,1.000,1159.000,5.000,2.000
"07/02/06","22:09:14","AMMA06",78781.000,"cc",28289.285,6.00,2828.929,1,6,0.100,46795.000,0.200,24352.000,0.300,4708.000,0.500,1785.000,1.000,1141.000,5.000,0
"07/02/06","22:09:20","AMMA06",79276.000,"cc",28321.908,6.00,2832.191,1,6,0.100,46920.000,0.200,24665.000,0.300,4766.000,0.500,1769.000,1.000,1155.000,5.000,1.000
"07/02/06","22:09:26","AMMA06",79046.000,"cc",28313.500,6.00,2831.350,1,6,0.100,47041.000,0.200,24472.000,0.300,4630.000,0.500,1761.000,1.000,1140.000,5.000,2.000
"07/02/06","22:09:32","AMMA06",79258.000,"cc",28307.465,6.00,2830.747,1,6,0.100,46888.000,0.200,24658.000,0.300,4791.000,0.500,1789.000,1.000,1132.000,5.000,0
"07/02/06","22:09:38","AMMA06",78710.000,"cc",28316.383,6.00,2831.638,1,6,0.100,46538.000,0.200,24321.000,0.300,4820.000,0.500,1856.000,1.000,1172.000,5.000,3.000
"07/02/06","22:09:44","AMMA06",79060.000,"cc",28334.061,6.00,2833.406,1,6,0.100,46711.000,0.200,24612.000,0.300,4767.000,0.500,1860.000,1.000,1109.000,5.000,1.000
"07/02/06","22:09:50","AMMA06",79271.000,"cc",28347.412,6.00,2834.742,1,6,0.100,46803.000,0.200,24661.000,0.300,4883.000,0.500,1820.000,1.000,1104.000,5.000,0
"07/02/06","22:09:56","AMMA06",79039.000,"cc",28294.971,6.00,2829.497,1,6,0.100,46774.000,0.200,24449.000,0.300,4758.000,0.500,1867.000,1.000,1190.000,5.000,1.000
"07/02/06","22:10:02","AMMA06",79052.000,"cc",28309.063,6.00,2830.907,1,6,0.100,46831.000,0.200,24461.000,0.300,4863.000,0.500,1769.000,1.000,1128.000,5.000,0
"07/02/06","22:10:08","AMMA06",79565.000,"cc",28295.643,6.00,2829.565,1,6,0.100,47014.000,0.200,24738.000,0.300,4830.000,0.500,1781.000,1.000,1200.000,5.000,2.000
"07/02/06","22:10:14","AMMA06",79813.000,"cc",28327.846,6.00,2832.785,1,6,0.100,47105.000,0.200,24877.000,0.300,4893.000,0.500,1826.000,1.000,1110.000,5.000,2.000
"07/02/06","22:10:20","AMMA06",79330.000,"cc",28330.801,6.00,2833.080,1,6,0.100,46562.000,0.200,25103.000,0.300,4810.000,0.500,1746.000,1.000,1108.000,5.000,1.000
"07/02/06","22:10:26","AMMA06",79760.000,"cc",28294.014,6.00,2829.402,1,6,0.100,47128.000,0.200,24902.000,0.300,4918.000,0.500,1676.000,1.000,1134.000,5.000,2.000
"07/02/06","22:10:32","AMMA06",79673.000,"cc",28350.820,6.00,2835.082,1,6,0.100,46870.000,0.200,24879.000,0.300,4915.000,0.500,1816.000,1.000,1193.000,5.000,0
"07/02/06","22:10:38","AMMA06",79409.000,"cc",28339.238,6.00,2833.924,1,6,0.100,46855.000,0.200,24860.000,0.300,4778.000,0.500,1779.000,1.000,1136.000,5.000,1.000
"07/02/06","22:10:44","AMMA06",79689.000,"cc",28300.916,6.00,2830.092,1,6,0.100,47095.000,0.200,24724.000,0.300,4845.000,0.500,1856.000,1.000,1168.000,5.000,1.000
"07/02/06","22:10:50","AMMA06",79198.000,"cc",28312.309,6.00,2831.231,1,6,0.100,46397.000,0.200,24990.000,0.300,4943.000,0.500,1730.000,1.000,1137.000,5.000,1.000
"07/02/06","22:10:56","AMMA06",79253.000,"cc",28280.824,6.00,2828.083,1,6,0.100,46563.000,0.200,24781.000,0.300,4937.000,0.500,1784.000,1.000,1188.000,5.000,0
"07/02/06","22:11:02","AMMA06",78998.000,"cc",28287.273,6.00,2828.728,1,6,0.100,46654.000,0.200,24634.000,0.300,4742.000,0.500,1778.000,1.000,1190.000,5.000,0
"07/02/06","22:11:08","AMMA06",79134.000,"cc",28357.383,6.00,2835.739,1,6,0.100,46631.000,0.200,24720.000,0.300,4794.000,0.500,1815.000,1.000,1174.000,5.000,0
"07/02/06","22:11:14","AMMA06",79800.000,"cc",28336.996,6.00,2833.700,1,6,0.100,46929.000,0.200,25016.000,0.300,4908.000,0.500,1837.000,1.000,1110.000,5.000,0
"07/02/06","22:11:20","AMMA06",79494.000,"cc",28328.397,6.00,2832.840,1,6,0.100,46759.000,0.200,24859.000,0.300,4947.000,0.500,1834.000,1.000,1095.000,5.000,0
"07/02/06","22:11:26","AMMA06",78753.000,"cc",28302.916,6.00,2830.292,1,6,0.100,46642.000,0.200,24392.000,0.300,4753.000,0.500,1782.000,1.000,1183.000,5.000,1.000
"07/02/06","22:11:32","AMMA06",79091.000,"cc",28281.240,6.00,2828.124,1,6,0.100,46930.000,0.200,24372.000,0.300,4868.000,0.500,1717.000,1.000,1203.000,5.000,1.000
"07/02/06","22:11:38","AMMA06",79075.000,"cc",28349.525,6.00,2834.953,1,6,0.100,46883.000,0.200,24409.000,0.300,4731.000,0.500,1859.000,1.000,1192.000,5.000,1.000
"07/02/06","22:11:44","AMMA06",79574.000,"cc",28343.690,6.00,2834.369,1,6,0.100,47341.000,0.200,24306.000,0.300,4814.000,0.500,1894.000,1.000,1219.000,5.000,0
"07/02/06","22:11:50","AMMA06",78817.000,"cc",28338.736,6.00,2833.874,1,6,0.100,46790.000,0.200,24303.000,0.300,4747.000,0.500,1826.000,1.000,1149.000,5.000,2.000
"07/02/06","22:11:56","AMMA06",78985.000,"cc",28328.795,6.00,2832.880,1,6,0.100,46933.000,0.200,24164.000,0.300,4883.000,0.500,1904.000,1.000,1099.000,5.000,2.000
"07/02/06","22:12:02","AMMA06",78776.000,"cc",28273.414,6.00,2827.342,1,6,0.100,46952.000,0.200,24210.000,0.300,4692.000,0.500,1766.000,1.000,1154.000,5.000,2.000
"07/02/06","22:12:08","AMMA06",78632.000,"cc",28316.322,6.00,2831.632,1,6,0.100,46673.000,0.200,24198.000,0.300,4756.000,0.500,1899.000,1.000,1105.000,5.000,1.000
"07/02/06","22:12:14","AMMA06",78525.000,"cc",28346.000,6.00,2834.600,1,6,0.100,46639.000,0.200,24229.000,0.300,4703.000,0.500,1815.000,1.000,1139.000,5.000,0
"07/02/06","22:12:20","AMMA06",78912.000,"cc",28287.828,6.00,2828.783,1,6,0.100,46961.000,0.200,24197.000,0.300,4749.000,0.500,1854.000,1.000,1150.000,5.000,1.000
"07/02/06","22:12:26","AMMA06",79026.000,"cc",28334.957,6.00,2833.496,1,6,0.100,47138.000,0.200,24148.000,0.300,4761.000,0.500,1839.000,1.000,1138.000,5.000,2.000
"07/02/06","22:12:32","AMMA06",78823.000,"cc",28320.447,6.00,2832.045,1,6,0.100,47291.000,0.200,24142.000,0.300,4521.000,0.500,1783.000,1.000,1084.000,5.000,2.000
"07/02/06","22:12:38","AMMA06",78481.000,"cc",28323.727,6.00,2832.373,1,6,0.100,46977.000,0.200,24046.000,0.300,4582.000,0.500,1743.000,1.000,1131.000,5.000,2.000
"07/02/06","22:12:44","AMMA06",78868.000,"cc",28298.678,6.00,2829.868,1,6,0.100,47145.000,0.200,24226.000,0.300,4581.000,0.500,1820.000,1.000,1096.000,5.000,0
"07/02/06","22:12:50","AMMA06",79116.000,"cc",28311.190,6.00,2831.119,1,6,0.100,47337.000,0.200,24097.000,0.300,4694.000,0.500,1837.000,1.000,1150.000,5.000,1.000
"07/02/06","22:12:56","AMMA06",78503.000,"cc",28274.234,6.00,2827.424,1,6,0.100,47070.000,0.200,23725.000,0.300,4704.000,0.500,1882.000,1.000,1122.000,5.000,0
"07/02/06","22:13:02","AMMA06",78701.000,"cc",28315.117,6.00,2831.512,1,6,0.100,46954.000,0.200,24191.000,0.300,4654.000,0.500,1840.000,1.000,1062.000,5.000,0
"07/02/06","22:13:08","AMMA06",78529.000,"cc",28352.908,6.00,2835.291,1,6,0.100,46884.000,0.200,24056.000,0.300,4610.000,0.500,1829.000,1.000,1149.000,5.000,1.000
"07/02/06","22:13:14","AMMA06",78806.000,"cc",28363.779,6.00,2836.378,1,6,0.100,47373.000,0.200,24044.000,0.300,4540.000,0.500,1745.000,1.000,1103.000,5.000,1.000
"07/02/06","22:13:20","AMMA06",78896.000,"cc",28279.662,6.00,2827.966,1,6,0.100,47258.000,0.200,23872.000,0.300,4803.000,0.500,1802.000,1.000,1161.000,5.000,0
"07/02/06","22:13:26","AMMA06",78491.000,"cc",28305.731,6.00,2830.573,1,6,0.100,47089.000,0.200,23858.000,0.300,4673.000,0.500,1730.000,1.000,1141.000,5.000,0
"07/02/06","22:13:32","AMMA06",78365.000,"cc",28330.563,6.00,2833.056,1,6,0.100,46926.000,0.200,23951.000,0.300,4672.000,0.500,1784.000,1.000,1030.000,5.000,2.000
"07/02/06","22:13:38","AMMA06",78311.000,"cc",28358.229,6.00,2835.823,1,6,0.100,46804.000,0.200,24006.000,0.300,4585.000,0.500,1822.000,1.000,1094.000,5.000,0
"07/02/06","22:13:44","AMMA06",78619.000,"cc",28288.584,6.00,2828.859,1,6,0.100,47090.000,0.200,24030.000,0.300,4555.000,0.500,1783.000,1.000,1160.000,5.000,1.000
"07/02/06","22:13:50","AMMA06",78664.000,"cc",28313.604,6.00,2831.361,1,6,0.100,46962.000,0.200,24093.000,0.300,4764.000,0.500,1751.000,1.000,1092.000,5.000,2.000